Etusivu
METAR-TAF:

METAR-TAF

Lentoasemat :

Warroad International Airport (Swede Carlson Field)

Warroad, Minnesota, Yhdysvallat

Leveyspiiri: 48-56-29N, Pituuspiiri: 095-20-54W, korkeus merenpinnasta: 327 m

Tämänhetkinen sää

Tämä raportti tehtiin 29 minuuttia sitten, kello 19.48 UTC
Tuuli 5 kn idästä
Lämpötila -11°C
Kosteus 78%
Ilmanpaine 1026 hPa
Näkyvyys: 16.1 km
Pilvistä 3400 ft:n korkeudessa

METAR: KRRT 261948Z AUTO 10005KT 10SM OVC034 M11/M14 A3030 RMK AO2

Aika: 14:17 (20:17 UTC)


TAF: puuttuu

Säähavainnot ja -ennusteet yli 4000 lentoasemalta (METAR- ja TAF-raportit).

Käytössä olevat sääasemat on merkitty karttaan keltaisilla ja punaisilla pisteillä.

Aseta hiiri pisteen päälle nähdäksesi sääaseman nimen.

Klikkaa sitten nähdäksesi säähavainnot ja -ennusteet.

Kartan vaihtaminen: klikkaa mustalla rastilla varustettuja vihreitä pisteitä, niin voit zoomata sisään; viivalla varustettua vihreää pistettä, niin voit zoomata ulos tai vihreitä nuolia, niin pääset viereisille kartoille.


METAR-TAF: